Overview Statistics Trail Chart Weather Telemetry Raw packets
 

This is the latest recevied weather packets stored in our database for station/object OH2MUI. If no packets are shown the sender has not sent any weather packets the latest 10 day(s).

<< 2 3 4 5 6 7 8 >>
Time Temp. Humidity Pressure Rain* Wind** Luminosity Snow
1788480150 7.78° C 99% 1003.3 hPa 0 mm - - -
1788478965 7.78° C 99% 1003.4 hPa 0 mm - - -
1788477868 7.78° C 99% 1003.7 hPa 0 mm - - -
1788477865 7.78° C 99% 1003.7 hPa 0 mm - - -
1788476695 7.78° C 99% 1003.8 hPa 0 mm - - -
1788475715 8.33° C 99% 1003.9 hPa 0 mm - - -
1788474690 7.78° C 99% 1003.9 hPa 0 mm - - -
1788473665 8.33° C 99% 1004.1 hPa 0 mm - - -
1788472610 8.33° C 99% 1004.3 hPa 0 mm - - -
1788471655 8.33° C 99% 1004.5 hPa 0 mm - - -
1788470460 8.33° C 99% 1004.3 hPa 0 mm - - -
1788469285 8.33° C 98% 1004.7 hPa 0 mm - - -
1788468175 8.89° C 97% 1004.6 hPa 0 mm - - -
1788467164 9.44° C 96% 1004.8 hPa 0 mm - - -
1788467160 9.44° C 96% 1004.8 hPa 0 mm - - -
1788466060 10° C 94% 1004.8 hPa 0 mm - - -
1788464912 10.56° C - - 0 mm - - -
1788464905 10.56° C 91% 1005 hPa 0 mm - - -
1788463739 10.56° C 89% 1005.1 hPa 0 mm - - -
1788462586 10° C 93% 1005.3 hPa 0 mm - - -
1788461505 10° C 91% 1005.4 hPa 0 mm - - -
1788460310 11.67° C 85% 1004.9 hPa 0 mm - - -
1788459317 12.22° C 81% 1005 hPa 0 mm - - -
1788458265 12.78° C 81% 1005.3 hPa 0 mm - - -
1788457135 13.33° C 80% 1005.3 hPa 0 mm - - -

* Rain latest hour (hover to see other rain measurements)
** Current wind speed in m/s (hover to see current wind gust speed)